Вернуться в каталог

SL-6 R/B(2)

АктивенHEO
NORAD 13075·ROCKET BODY·🇷🇺 Russia

Запущен Feb 26, 1982 с Plesetsk Cosmodrome

Loading…

Ближайшие Пролёты (ближайшие 24 часа)

TLE

СвежийSource: Space-Track

Эпоха: Sep 11, 2026, 13:59 UTC

1 13075U 82015D   26254.58324614  .00000430  00000-0  00000-0 0  9991
2 13075  63.1230  95.9865 7109593 277.5368  13.6781  1.98085509320878

Отслеживайте SL-6 R/B(2) в реальном времени с AllMySat

Download on the App Store